www.pogodaiklimat.ru
ПОГОДА в Гран-Канарии

Архив погоды в Гран-Канарии (Канарские Острова)

Время
(UTC), дата
13 18.09
14 18.09
15 18.09
16 18.09
17 18.09
18 18.09
19 18.09
20 18.09
21 18.09
22 18.09
23 18.09
00 19.09
01 19.09
02 19.09
03 19.09
04 19.09
05 19.09
06 19.09
08 19.09
07 19.09
08 19.09
09 19.09
10 19.09
11 19.09
12 19.09
13 19.09
14 19.09
15 19.09
16 19.09
17 19.09
18 19.09
19 19.09
20 19.09
21 19.09
22 19.09
23 19.09
00 20.09
01 20.09
02 20.09
03 20.09
04 20.09
05 20.09
06 20.09
07 20.09
08 20.09
09 20.09
10 20.09
11 20.09
12 20.09
13 20.09
14 20.09
15 20.09
16 20.09
17 20.09
18 20.09
19 20.09
20 20.09
21 20.09
22 20.09
23 20.09
00 21.09
01 21.09
02 21.09
03 21.09
04 21.09
05 21.09
06 21.09
07 21.09
08 21.09
09 21.09
10 21.09
11 21.09
12 21.09
13 21.09
14 21.09
15 21.09
16 21.09
17 21.09
18 21.09
19 21.09
20 21.09
21 21.09
22 21.09
23 21.09
00 22.09
01 22.09
02 22.09
03 22.09
04 22.09
05 22.09
06 22.09
07 22.09
08 22.09
09 22.09
10 22.09
11 22.09
12 22.09
13 22.09
14 22.09
15 22.09
16 22.09
17 22.09
18 22.09
19 22.09
20 22.09
21 22.09
22 22.09
23 22.09
00 23.09
01 23.09
02 23.09
03 23.09
04 23.09
05 23.09
06 23.09
07 23.09
08 23.09
09 23.09
10 23.09
11 23.09
12 23.09
13 23.09
14 23.09
15 23.09
16 23.09
17 23.09
18 23.09
19 23.09
20 23.09
21 23.09
22 23.09
23 23.09
00 24.09
01 24.09
02 24.09
03 24.09
04 24.09
05 24.09
06 24.09
07 24.09
08 24.09
09 24.09
10 24.09
11 24.09
12 24.09
13 24.09
14 24.09
15 24.09
16 24.09
17 24.09
18 24.09
19 24.09
20 24.09
21 24.09
22 24.09
23 24.09
00 25.09
01 25.09
02 25.09
03 25.09
04 25.09
05 25.09
06 25.09
07 25.09
08 25.09
09 25.09
10 25.09
11 25.09
12 25.09
13 25.09
Ветер
(напр.,м/с)
Видим. Явления Облачность Т
(С)
Тd
(С)
f
(%)
Тe
(С)
Тes
(С)
Комфортность P
(гПа)
Po
(гПа)
Тmin
(С)
Tmax
(С)
R
(мм)
R24
(мм)
S
(см)
ЮВ 3 н/о осадки н/о +23.7 +21.3 86 +30 +30 очень
душно
1012.8 1007.4
Ю 4 н/о осадки н/о +22.5 +21.4 94 +30 +30 очень
душно
1012.5 1007.1
СВ 2 1100 м в посл. час дождь [макс. диам. градин 0 мм] 9/9 300 м
[Cu Sc]
+21.8 +20.3 91 +28 +29 душно 1012.4 1007.0
Ю 2 н/о осадки н/о +21.9 +20.3 91 +28 +28 душно 1012.3 1006.9
штиль 0 н/о осадки н/о +22.0 +20.6 92 +28 +28 душно 1012.2 1006.8
В 1 10 км слаб. дождь [макс. диам. градин 0 мм] 9/9 300 м
[Cu Sc]
+22.3 +20.7 91 +29 +29 очень
душно
1012.3 1006.9 +26.1 24
штиль 0 н/о в посл. час осадки н/о +22.5 +20.6 89 +29 +29 очень
душно
1012.7 1007.3
штиль 0 н/о н/о +22.6 +20.5 88 +29 +29 очень
душно
1013.2 1007.8
С 4 18 км [макс. диам. градин 0 мм] 4/4 600 м
[Cu Sc]
+22.3 +20.5 90 +29 +29 очень
душно
1013.7 1008.3
С 4 н/о н/о +22.1 +19.2 84 +28 +28 душно 1013.9 1008.5
СВ 3 н/о н/о +21.9 +20.6 92 +28 +28 душно 1014.0 1008.6
СЗ 3 18 км [макс. диам. градин 0 мм] 1/1 600 м
[Cu Sc]
+21.4 +19.3 88 +26 +26 душно 1013.8 1008.4 0.0
СЗ 3 н/о н/о +20.9 +18.3 85 +25 +25 комфорт 1013.6 1008.1
СЗ 3 н/о н/о +20.6 +17.8 84 +25 +25 комфорт 1013.4 1007.9
З 2 18 км [макс. диам. градин 0 мм] 1/1 600 м
[Cu Sc]
+20.5 +17.9 85 +25 +25 комфорт 1013.1 1007.6
З 2 н/о н/о +20.4 +18.3 88 +25 +25 комфорт 1013.0 1007.5
СЗ 3 н/о н/о +20.2 +17.5 84 +24 +24 комфорт 1012.9 1007.4
СЗ 3 20 км [макс. диам. градин 0 мм] 1/1 600 м
[Cu Sc]
+20.4 +17.0 81 +24 +24 комфорт 1013.0 1007.5 +20.2 24 24.0
штиль 0 н/о н/о +22.2 +18.3 79 +27 +27 душно 1014.6 1009.2
ЮЗ 2 н/о н/о +20.1 +17.0 82 +24 +24 комфорт 1014.0 1008.5
штиль 0 н/о н/о +22.2 +18.3 79 +27 +27 душно 1014.6 1009.2
ЮВ 1 25 км [макс. диам. градин 0 мм] 1/1 300 м
[Sc]
+23.8 +18.7 73 +28 +33 душно 1015.2 1009.8
ЮВ 2 н/о н/о +24.4 +19.8 76 +30 +30 очень
душно
1015.7 1010.3
ЮВ 3 н/о н/о +24.6 +20.8 79 +31 +31 очень
душно
1016.2 1010.8
В 3 20 км [макс. диам. градин 0 мм] 3/3 300 м
[Cu med, cong]
+24.7 +19.7 74 +30 +40 очень
душно
1016.1 1010.7
В 3 н/о н/о +25.1 +20.1 74 +31 +31 очень
душно
1015.5 1010.1
В 4 н/о н/о +25.2 +18.8 68 +30 +30 душно 1014.8 1009.4
В 4 н/о [макс. диам. градин 0 мм] н/о +24.9 +20.0 74 +30 +30 душно 1014.8 1009.4
В 3 н/о н/о +24.2 +20.1 78 +30 +30 очень
душно
1014.8 1009.4
В 2 н/о н/о +24.1 +20.0 78 +30 +30 очень
душно
1014.9 1009.5
В 2 12 км [макс. диам. градин 0 мм] 9/9 300 м
[Cu Sc]
+23.8 +20.4 81 +29 +30 душно 1015.0 1009.6 +25.7
З 4 н/о осадки н/о +21.9 +20.1 90 +28 +28 душно 1015.3 1009.9
СЗ 2 н/о в посл. час осадки н/о +22.7 +20.3 86 +29 +29 очень
душно
1015.5 1010.1
СЗ 2 25 км [макс. диам. градин 0 мм] 3/3 600 м
[Sc Ac trans]
+22.8 +20.5 87 +30 +30 очень
душно
1016.1 1010.7
СЗ 3 н/о н/о +22.7 +20.5 87 +29 +29 очень
душно
1016.4 1011.0
С 3 н/о н/о +22.6 +20.4 87 +29 +29 очень
душно
1016.6 1011.2
СЗ 3 25 км [макс. диам. градин 0 мм] 9/9 300 м
[Cu Sc]
+22.3 +20.1 87 +28 +28 душно 1016.3 1010.9 1
СЗ 3 н/о н/о +22.0 +19.9 88 +28 +28 душно 1015.8 1010.4
С 4 н/о н/о +21.6 +19.7 89 +27 +27 душно 1015.1 1009.7
С 4 30 км [макс. диам. градин 0 мм] ясно +21.4 +18.5 84 +26 +26 душно 1014.7 1009.3
С 4 н/о н/о +20.9 +17.8 82 +25 +25 комфорт 1014.7 1009.2
СЗ 3 н/о н/о +20.5 +17.3 82 +24 +24 комфорт 1015.1 1009.6
СЗ 3 30 км [макс. диам. градин 0 мм] 1/1 300 м
[Sc]
+21.3 +18.9 86 +26 +26 душно 1015.5 1010.0 +20.5 1 1.0
СЗ 3 н/о н/о +21.3 +18.7 85 +26 +26 душно 1016.0 1010.5
СЗ 3 н/о н/о +21.6 +18.5 83 +26 +26 душно 1016.3 1010.8
С 3 20 км [макс. диам. градин 0 мм] 3/3 600 м
[Sc]
+23.1 +19.8 82 +30 +32 очень
душно
1016.8 1011.4
С 5 н/о н/о +24.1 +20.2 79 +30 +30 очень
душно
1017.2 1011.8
С 4 н/о н/о +24.9 +19.4 72 +30 +30 душно 1017.3 1011.9
СВ 5 25 км [макс. диам. градин 0 мм] 3/3 600 м
[Sc]
+24.9 +20.4 76 +31 +37 очень
душно
1017.0 1011.6
СВ 5 н/о н/о +25.1 +20.5 76 +31 +31 очень
душно
1016.7 1011.3
СВ 4 н/о в посл. час осадки н/о +25.0 +20.1 74 +31 +31 очень
душно
1016.2 1010.8
СВ 4 20 км [макс. диам. градин 0 мм] 4/4 300 м
[Sc]
+24.8 +19.6 73 +30 +35 душно 1015.7 1010.3
СВ 5 н/о н/о +25.1 +20.0 73 +31 +31 очень
душно
1015.6 1010.2
С 6 н/о н/о +25.5 +19.0 67 +30 +30 душно 1015.5 1010.1
С 6 20 км [макс. диам. градин 0 мм] 1/1 600 м
[Sc]
+24.4 +18.8 71 +29 +30 душно 1015.7 1010.3 +25.8 0.0
С 7 н/о н/о +23.7 +19.4 77 +29 +29 душно 1016.0 1010.6
С 6 н/о н/о +23.4 +20.1 82 +31 +31 очень
душно
1016.8 1011.4
С 6 20 км [макс. диам. градин 0 мм] 1/1 300 м
[Sc]
+23.0 +20.0 83 +30 +30 очень
душно
1017.4 1012.0
С 5 н/о н/о +22.4 +19.3 83 +28 +28 душно 1017.7 1012.3
С 6 н/о н/о +22.2 +18.9 82 +28 +28 душно 1017.5 1012.1
С 6 25 км [макс. диам. градин 0 мм] 1/1 300 м
[Sc]
+22.2 +19.0 82 +28 +28 душно 1017.3 1011.9
С 7 н/о н/о +21.9 +19.0 84 +27 +27 душно 1016.6 1011.2
С 7 н/о н/о +21.7 +18.0 79 +26 +26 душно 1016.1 1010.6
С 7 25 км [макс. диам. градин 0 мм] 3/3 300 м
[Sc]
+21.9 +18.1 79 +27 +27 душно 1015.6 1010.2
С 7 н/о н/о +21.7 +17.4 77 +26 +26 душно 1015.4 1010.0
С 6 н/о н/о +21.7 +17.5 77 +26 +26 душно 1015.6 1010.2
С 7 25 км [макс. диам. градин 0 мм] 4/4 300 м
[Sc]
+21.6 +17.3 77 +26 +26 душно 1016.0 1010.5 +21.6 0.0 0.0
С 6 н/о н/о +21.7 +17.7 78 +26 +26 душно 1016.4 1010.9
С 7 н/о н/о +23.2 +18.7 76 +29 +29 душно 1016.8 1011.4
С 8 40 км [макс. диам. градин 0 мм] 1/1 600 м
[Sc]
+24.7 +18.9 70 +30 +30 очень
душно
1017.2 1011.8
С 8 н/о н/о +24.7 +18.7 69 +29 +29 душно 1017.6 1012.2
С 10 н/о н/о +25.5 +18.6 66 +30 +30 душно 1017.8 1012.4
СВ 9 35 км [макс. диам. градин 0 мм] 1/1 600 м +25.9 +19.8 69 +32 +33 очень
душно
1017.7 1012.3
С 10 н/о н/о +26.3 +19.2 65 +32 +32 очень
душно
1017.5 1012.1
СВ 9 н/о н/о +26.4 +19.5 66 +32 +32 очень
душно
1017.2 1011.8
С 8 35 км [макс. диам. градин 0 мм] 1/1 1000 м
[Sc]
+26.5 +18.6 62 +31 +33 душно 1016.7 1011.3
СВ 8 н/о н/о +26.3 +16.9 56 +30 +30 душно 1016.5 1011.1
С 8 н/о н/о +25.5 +18.4 65 +30 +30 душно 1016.4 1011.0
С 9 25 км [макс. диам. градин 0 мм] 1/1 1000 м
[Sc]
+24.7 +18.6 69 +29 +29 душно 1016.3 1010.9 +27.1
С 9 н/о н/о +23.7 +19.3 76 +29 +29 душно 1016.4 1011.0
С 9 н/о н/о +23.3 +19.4 79 +30 +30 очень
душно
1016.9 1011.5
С 8 20 км [макс. диам. градин 0 мм] 1/1 600 м
[Sc]
+23.1 +19.4 80 +30 +30 очень
душно
1017.7 1012.3
С 9 н/о н/о +22.9 +19.3 80 +29 +29 очень
душно
1018.0 1012.6
С 8 н/о н/о +22.8 +19.5 82 +29 +29 очень
душно
1018.0 1012.6
С 8 20 км [макс. диам. градин 0 мм] 3/3 300 м
[Sc]
+22.6 +19.4 82 +29 +29 очень
душно
1018.0 1012.6
С 8 н/о н/о +22.5 +19.6 84 +29 +29 очень
душно
1017.8 1012.4
С 9 н/о н/о +22.5 +19.2 82 +28 +28 душно 1017.3 1011.9
С 8 20 км [макс. диам. градин 0 мм] 1/1 300 м
[Sc]
+22.3 +18.8 81 +28 +28 душно 1017.0 1011.6
С 8 н/о н/о +22.1 +18.5 80 +27 +27 душно 1016.8 1011.4
С 8 н/о н/о +22.0 +17.8 77 +27 +27 душно 1016.7 1011.3
С 8 20 км [макс. диам. градин 0 мм] 1/1 600 м
[Sc]
+22.0 +17.6 76 +27 +27 душно 1016.8 1011.4 +21.9
С 8 н/о н/о +22.3 +17.6 75 +27 +27 душно 1017.2 1011.8
С 9 н/о н/о +23.4 +18.9 76 +30 +30 очень
душно
1017.6 1012.2
С 9 20 км [макс. диам. градин 0 мм] 3/3 600 м
[Sc]
+24.5 +18.8 71 +29 +30 душно 1018.0 1012.6
С 9 н/о н/о +24.2 +19.4 75 +29 +29 душно 1018.5 1013.1
С 11 н/о н/о +26.0 +19.8 69 +32 +32 очень
душно
1018.2 1012.8
С 12 20 км [макс. диам. градин 0 мм] 5/5 600 м
[Sc]
+26.2 +18.9 64 +31 +31 очень
душно
1018.0 1012.6
С 11 н/о н/о +26.3 +18.9 64 +31 +31 душно 1017.6 1012.2
С 11 н/о н/о +27.0 +16.6 53 +31 +31 душно 1017.3 1011.9
С 10 20 км [макс. диам. градин 0 мм] 3/3 600 м
[Sc]
+26.4 +18.0 60 +31 +31 душно 1016.6 1011.2
С 11 н/о н/о +26.7 +15.3 50 +30 +30 душно 1016.4 1011.0
С 10 н/о н/о +26.1 +17.3 58 +30 +30 душно 1016.6 1011.2
С 10 20 км [макс. диам. градин 0 мм] 4/3 600 м
[Sc Ci fib]
+24.6 +18.7 70 +29 +29 душно 1016.7 1011.3 +27.2
С 9 н/о н/о +24.0 +18.7 72 +29 +29 душно 1017.0 1011.6
С 8 н/о н/о +23.5 +18.9 75 +28 +28 душно 1017.5 1012.1
С 10 20 км [макс. диам. градин 0 мм] 6/6 600 м
[Sc]
+23.4 +19.1 77 +30 +30 очень
душно
1017.6 1012.2
С 9 н/о н/о +23.3 +19.3 78 +30 +30 очень
душно
1017.6 1012.2
С 10 н/о н/о +23.0 +19.4 80 +29 +29 очень
душно
1017.4 1012.0
С 10 20 км [макс. диам. градин 0 мм] 4/4 300 м
[Sc]
+22.8 +19.6 82 +29 +29 очень
душно
1017.1 1011.7
С 8 н/о н/о +22.7 +19.5 82 +29 +29 очень
душно
1017.1 1011.7
С 8 20 км 5/5 300 м
[Sc]
+22.6 +19.5 83 +29 +29 очень
душно
1016.9 1011.5
С 9 20 км 3/3 300 м
[Sc]
+22.4 +19.1 82 +28 +28 душно 1016.2 1010.8
С 8 н/о н/о +22.4 +19.4 83 +28 +28 душно 1016.3 1010.9
С 8 н/о н/о +22.5 +19.0 81 +28 +28 душно 1016.5 1011.1
С 7 20 км [макс. диам. градин 0 мм] 8/8 300 м
[Sc]
+22.4 +19.1 82 +28 +28 душно 1017.0 1011.6 +22.4
С 8 н/о н/о +22.6 +18.4 77 +28 +28 душно 1017.5 1012.1
С 7 н/о н/о +23.2 +18.2 73 +29 +29 душно 1018.1 1012.7
С 8 18 км [макс. диам. градин 0 мм] 8/4 600 м
[Cu Sc Ac As Ci sp]
+24.2 +18.5 70 +29 +29 душно 1018.5 1013.1
С 9 н/о н/о +25.4 +17.1 60 +29 +29 душно 1018.5 1013.1
С 9 н/о н/о +26.0 +18.5 63 +31 +31 очень
душно
1018.8 1013.4
С 12 20 км [макс. диам. градин 0 мм] 5/1 600 м
[Cu Sc Ac As Ci sp]
+25.8 +18.2 63 +30 +30 душно 1017.5 1012.1
С 12 н/о н/о +26.5 +18.8 63 +32 +32 очень
душно
1017.2 1011.8
С 13 н/о н/о +26.0 +17.9 61 +30 +30 душно 1016.8 1011.4
С 11 22 км [макс. диам. градин 0 мм] 8/1 600 м
[Cu Sc Ac As Ci sp]
+26.0 +17.8 61 +30 +30 душно 1016.7 1011.3
С 11 н/о н/о +25.6 +17.6 61 +30 +30 душно 1016.4 1011.0
С 10 н/о н/о +24.7 +17.5 64 +29 +29 душно 1016.6 1011.2
С 10 22 км [макс. диам. градин 0 мм] 9/1 600 м
[Sc Ac As Ci sp]
+23.8 +17.1 66 +28 +28 душно 1016.0 1010.6 +27.0
С 10 н/о н/о +23.3 +17.8 71 +29 +29 душно 1015.8 1010.4
С 10 н/о н/о +23.3 +18.3 73 +29 +29 душно 1015.8 1010.4
С 11 18 км [макс. диам. градин 0 мм] 8/3 600 м
[Sc]
+23.2 +18.3 74 +29 +29 душно 1016.5 1011.1
С 8 н/о н/о +23.2 +18.3 74 +29 +29 душно 1017.4 1012.0
С 6 н/о н/о +23.1 +18.4 75 +29 +29 очень
душно
1018.3 1012.9
С 5 18 км [макс. диам. градин 0 мм] 8/5 600 м
[Sc]
+23.0 +18.3 75 +29 +29 очень
душно
1018.1 1012.7
С 4 н/о н/о +22.9 +18.4 76 +29 +29 очень
душно
1017.8 1012.4
С 6 н/о н/о +22.8 +18.9 79 +29 +29 очень
душно
1016.8 1011.4
С 4 18 км [макс. диам. градин 0 мм] 8/8 600 м
[Sc]
+22.4 +18.9 81 +28 +28 душно 1016.6 1011.2
С 6 н/о в посл. час осадки н/о +22.2 +19.0 82 +28 +28 душно 1016.1 1010.7
С 5 н/о осадки н/о +22.2 +19.2 83 +28 +28 душно 1016.2 1010.8
С 5 15 км слаб. дождь [макс. диам. градин 0 мм] 5/5 300 м
[Sc]
+21.8 +19.0 84 +27 +27 душно 1016.2 1010.8 +21.7 0.0 0.0
С 7 н/о в посл. час осадки н/о +21.8 +18.2 80 +27 +27 душно 1015.7 1010.3
С 6 н/о осадки н/о +21.3 +18.9 86 +26 +26 душно 1017.0 1011.5
С 7 18 км [макс. диам. градин 0 мм] 5/5 300 м
[Sc As trans Ci fib]
+21.7 +18.8 84 +27 +27 душно 1017.3 1011.8
С 8 н/о осадки н/о +21.6 +17.8 79 +26 +26 душно 1018.1 1012.6
С 7 н/о в посл. час осадки н/о +22.0 +18.4 80 +27 +27 душно 1017.8 1012.3
С 7 17 км в посл. час дождь [макс. диам. градин 0 мм] 10/5 300 м
[Sc As op Ci fib]
+22.6 +19.5 83 +29 +30 очень
душно
1017.5 1012.1 0.5
С 7 н/о н/о +22.7 +19.4 82 +29 +29 очень
душно
1017.0 1011.6
С 7 н/о в посл. час осадки н/о +22.4 +20.3 88 +29 +29 очень
душно
1016.4 1011.0
С 6 8000 м в посл. час дождь [макс. диам. градин 0 мм] 10/10 300 м
[Sc]
+21.6 +20.2 92 +27 +27 душно 1016.2 1010.8
С 6 н/о осадки н/о +21.3 +20.3 94 +26 +26 душно 1015.9 1010.4
С 6 н/о осадки н/о +21.4 +20.1 92 +27 +27 душно 1016.3 1010.8
С 6 200 м слаб. дождь [макс. диам. градин 0 мм] 10/10 300 м
[Cu Sc]
+21.2 +20.3 95 +26 +26 душно 1016.5 1011.0 +23.2 3
С 5 н/о осадки н/о +21.1 +20.2 95 +26 +26 душно 1016.3 1010.8
С 4 н/о осадки н/о +21.2 +20.3 95 +26 +26 душно 1016.0 1010.5
С 4 15 км [макс. диам. градин 0 мм] 10/10 300 м
[Cu Sc]
+21.4 +20.3 93 +27 +27 душно 1015.9 1010.5
С 5 н/о н/о +21.5 +20.4 93 +27 +27 душно 1015.6 1010.2
С 5 н/о в посл. час осадки н/о +21.8 +20.7 93 +28 +28 душно 1015.2 1009.8
С 4 15 км [макс. диам. градин 0 мм] 10/10 300 м
[Cu Sc]
+21.7 +20.7 94 +28 +28 душно 1014.3 1008.9 1
С 5 н/о н/о +21.7 +20.3 92 +27 +27 душно 1013.6 1008.2
С 4 н/о в посл. час осадки н/о +21.8 +19.8 88 +27 +27 душно 1013.0 1007.6
СЗ 1 5000 м сильн. дождь [макс. диам. градин 0 мм] 10/10 600 м
[Cu Sc]
+21.4 +20.0 92 +27 +27 душно 1013.9 1008.5
С 5 н/о осадки н/о +21.1 +19.8 92 +26 +26 душно 1012.7 1007.3
С 5 н/о осадки н/о +21.1 +19.9 93 +26 +26 душно 1013.1 1007.7
СВ 5 15 км слаб. дождь [макс. диам. градин 0 мм] 10/10 600 м
[Cu Sc]
+21.1 +20.5 96 +26 +26 душно 1013.6 1008.2 +21.1 13 13.0
С 6 н/о осадки н/о +21.0 +20.6 98 +26 +26 душно 1013.6 1008.2
С 5 н/о осадки н/о +20.8 +20.1 96 +26 +26 душно 1014.2 1008.7
С 5 5000 м слаб. дождь [макс. диам. градин 0 мм] 9/9 200 м
[Sc]
+21.1 +20.6 97 +26 +26 душно 1013.9 1008.5
С 4 н/о осадки н/о +20.9 +20.6 98 +26 +26 душно 1014.1 1008.7
СВ 3 н/о осадки н/о +21.0 +20.8 99 +27 +27 душно 1014.7 1009.3
С 3 4000 м дождь [макс. диам. градин 0 мм] 9/9 100 м
[Cu Sc]
+20.7 +20.5 99 +26 +27 душно 1015.0 1009.5 33
В 3 н/о осадки н/о +20.9 +20.6 98 +26 +26 душно 1014.6 1009.2
Местоположение метеостанции Гран-Канария (Канарские Острова): широта 27.93 долгота -15.38 высота над уровнем моря 47 м.
В архиве по умолчанию представлена погода в Гран-Канарии за последнюю неделю. Архивные данные за месяц целиком и за предыдущие месяцы, начиная с января 2011 года, Вы можете получить, выбрав интересующий диапазон дат из раскрывающегося списка и нажав кнопку "Найти!".
*Определитесь, кто Вы:
Внимание! Время в таблицах - всемирное. Для получения местного времени необходимо прибавить поправку, которая равна 0 ч.
Смотрите также архив погоды в соседних городах и на ближайших метеорологических станциях:
Партнеры нашего сайта:      
Пояснения к столбцам:
  • Ветер - указаны скорость ветра в м/с - средняя за 10 мин, порывы в срок и между сроками (в фигурных скобках) и направление, откуда дует ветер: С - северный,
  • СВ - северо-восточный, В - восточный, ЮВ - юго-восточный, Ю - южный, ЮЗ - юго-западный, З - западный, СЗ - северо-западный.
  • Видимость - горизонтальная дальность видимости в метрах или километрах. При видимости от 1 до 10 км при отсутствии осадков обычно наблюдается дымка, при ухудшении видимости до 1 км и менее - туман. В сухую погоду видимость может ухудшаться дымом, пылью или мглою.
  • Явления - указаны атмосферные явления, наблюдавшиеся в срок или в последний час перед сроком; фигурными скобками обозначены явления, наблюдавшиеся между сроками (за 1-3 часа до срока); квадратными скобками обозначены град или гололедные отложения с указанием их диаметра в мм.
  • Облачность - указаны через наклонную черту общая и нижняя облачность в баллах и высота нижней границы облаков в метрах; квадратными скобками обозначены формы облаков: Ci - перистые, Cs - перисто-слоистые, Cc - перисто-кучевые, Ac - высококучевые, As - высокослоистые, Sc - слоисто-кучевые, Ns - слоисто-дождевые, Cu - кучевые, Cb - кучево-дождевые. Подробнее классификацию облаков см. в Атласе облаков (PDF).
  • T - Температура воздуха - температура, измеренная на высоте 2 м над землей.
  • Td - Температура точки росы - температура, при понижении до которой содержащийся в воздухе водяной пар достигнет насыщения.
  • f - Относительная влажность воздуха - влажноcть воздуха, измеренная на высоте 2 м над землей.
  • Te - Эффективная температура - температура, которую ощущает одетый по сезону человек в тени. Характеристика душности погоды. При расчете учитывается влияние влажности воздуха и скорости ветра на теплоощущения человека.
  • Tes - Эффективная температура на солнце - температура, которую ощущает человек, с поправкой на солнечный нагрев. Характеристика знойности погоды. Зависит от высоты солнца над горизонтом, облачности и скорости ветра. Ночью, в пасмурную погоду, а также при ветре 12 м/с и более поправка равна нулю.
  • P - Атмосферное давление - приведенное к уровню моря атмосферное давление.
  • Po - Атмосферное давление - измеренное на уровне метеостанции атмосферное давление.
  • Tmin - Минимальная температура - минимум температуры воздуха на высоте 2 м над землей.
  • Tmax - Максимальная температура - максимум температуры воздуха на высоте 2 м над землей.
  • R - Количество осадков - Количество выпавших осадков за период времени, мм. При наведении курсора мыши на число - период времени, за который выпало указанное количество осадков.
  • R24 - Количество осадков - Количество выпавших осадков за 24 часа, мм.
  • S - Снежный покров - Высота снежного покрова, см. При наведении курсора мыши на число - состояние снежного покрова и степень покрытия местности в баллах.